Location: Mason
(37.5237°N, 89.2543°W)
Time: 14:01:43
(UTC+00:00)

USA 215 - Pass Details

Date: 08 December 2021
Orbit: 1099 x 1109 km, 123.0° (Epoch: 14 January)

Event Time Altitude Azimuth Distance (km) Brightness Sun altitude
Rises 11:58:24 0° 117° (ESE) 3,910 8.2 -11.9°
Reaches altitude 10° 12:00:55 10° 113° (ESE) 2,953 7.1 -11.4°
Maximum altitude 12:07:14 55° 38° (NE) 1,307 3.8 -10.2°
Drops below altitude 10° 12:13:33 10° 323° (NW) 2,958 5.0 -9.1°
Enters shadow 12:14:33 - 321° (NW) 3,333 5.3 -8.9°
